EN

Hourly Weather Almeirim

Today, 23 January, Saturday

Time Temperature Precipitation Wind Pressure Humidity
00:00 +25°C° 0 mm 1 mps 758 mmHg 94%
01:00 +24°C° 0 mm 1 mps 757 mmHg 94%
02:00 +24°C° 0 mm 1 mps 757 mmHg 94%
03:00 +24°C° 0 mm 1 mps 757 mmHg 95%
04:00 +24°C° 0 mm 1 mps 757 mmHg 96%
05:00 +22°C° 0 mm 0 mps 757 mmHg 97%
06:00 +25°C° 0 mm 1 mps 758 mmHg 91%
07:00 +27°C° 0 mm 1 mps 758 mmHg 84%
08:00 +28°C° 0 mm 2 mps 759 mmHg 78%
09:00 +30°C° 0 mm 2 mps 759 mmHg 70%
10:00 +32°C° 0 mm 2 mps 758 mmHg 61%
11:00 +35°C° 0 mm 2 mps 758 mmHg 52%
12:00 +35°C° 0 mm 2 mps 757 mmHg 49%
13:00 +36°C° 0 mm 2 mps 756 mmHg 45%
14:00 +37°C° 0 mm 2 mps 755 mmHg 41%
15:00 +36°C° 0 mm 2 mps 755 mmHg 44%
16:00 +35°C° 0 mm 2 mps 754 mmHg 46%
17:00 +34°C° 0 mm 1 mps 754 mmHg 48%
18:00 +32°C° 0.1 mm 2 mps 755 mmHg 56%
19:00 +30°C° 0.1 mm 2 mps 755 mmHg 64%
20:00 +28°C° 0.1 mm 2 mps 756 mmHg 72%
21:00 +27°C° 0.1 mm 2 mps 757 mmHg 76%
22:00 +27°C° 0.1 mm 2 mps 757 mmHg 80%
23:00 +26°C° 0.1 mm 2 mps 757 mmHg 85%

Tomorrow, 24 January, Sunday

Time Temperature Precipitation Wind Pressure Humidity
00:00 +26°C° 0 mm 2 mps 757 mmHg 87%
01:00 +25°C° 0 mm 2 mps 757 mmHg 89%
02:00 +25°C° 0 mm 1 mps 756 mmHg 91%
03:00 +25°C° 0 mm 1 mps 757 mmHg 93%
04:00 +24°C° 0 mm 1 mps 757 mmHg 95%
05:00 +24°C° 0 mm 1 mps 757 mmHg 97%
06:00 +26°C° 0 mm 1 mps 757 mmHg 91%
07:00 +27°C° 0 mm 2 mps 758 mmHg 85%
08:00 +28°C° 0 mm 2 mps 758 mmHg 79%
09:00 +30°C° 0 mm 2 mps 758 mmHg 70%
10:00 +32°C° 0 mm 2 mps 757 mmHg 60%
11:00 +35°C° 0 mm 2 mps 757 mmHg 51%
12:00 +35°C° 0.3 mm 2 mps 756 mmHg 53%
13:00 +35°C° 0.3 mm 2 mps 755 mmHg 55%
14:00 +35°C° 0.3 mm 2 mps 754 mmHg 56%
15:00 +32°C° 0.8 mm 2 mps 754 mmHg 66%
16:00 +30°C° 0.8 mm 2 mps 754 mmHg 76%
17:00 +29°C° 0.8 mm 2 mps 754 mmHg 86%
18:00 +28°C° 0.2 mm 2 mps 755 mmHg 89%
19:00 +27°C° 0.2 mm 1 mps 755 mmHg 91%
20:00 +26°C° 0.2 mm 1 mps 756 mmHg 94%
21:00 +26°C° 0 mm 1 mps 756 mmHg 95%
22:00 +25°C° 0 mm 1 mps 756 mmHg 95%
23:00 +25°C° 0 mm 1 mps 757 mmHg 96%

Day after tomorrow, 25 January, Monday

Time Temperature Precipitation Wind Pressure Humidity
00:00 +25°C° 0 mm 1 mps 756 mmHg 96%
01:00 +25°C° 0 mm 1 mps 756 mmHg 96%
02:00 +25°C° 0 mm 1 mps 756 mmHg 97%
03:00 +24°C° 0 mm 1 mps 756 mmHg 97%
04:00 +24°C° 0 mm 1 mps 756 mmHg 97%
05:00 +24°C° 0 mm 1 mps 756 mmHg 97%
06:00 +25°C° 0 mm 1 mps 757 mmHg 93%
07:00 +26°C° 0 mm 1 mps 758 mmHg 90%
08:00 +27°C° 0 mm 2 mps 758 mmHg 87%
09:00 +28°C° 0 mm 1 mps 758 mmHg 79%
10:00 +29°C° 0 mm 1 mps 757 mmHg 72%
11:00 +31°C° 0 mm 1 mps 757 mmHg 64%
12:00 +32°C° 0 mm 1 mps 756 mmHg 60%
13:00 +33°C° 0 mm 1 mps 755 mmHg 55%
14:00 +34°C° 0 mm 1 mps 754 mmHg 51%
15:00 +34°C° 0.1 mm 2 mps 754 mmHg 54%
16:00 +34°C° 0.1 mm 2 mps 754 mmHg 56%
17:00 +32°C° 0.1 mm 2 mps 754 mmHg 59%
18:00 +30°C° 0.6 mm 2 mps 755 mmHg 70%
19:00 +28°C° 0.6 mm 2 mps 755 mmHg 82%
20:00 +26°C° 0.6 mm 2 mps 756 mmHg 93%
21:00 +26°C° 0 mm 2 mps 756 mmHg 93%
22:00 +25°C° 0 mm 2 mps 757 mmHg 93%
23:00 +25°C° 0 mm 1 mps 757 mmHg 94%

26 January, Tuesday

Time Temperature Precipitation Wind Pressure Humidity
00:00 +25°C° 0.1 mm 1 mps 757 mmHg 94%
01:00 +25°C° 0.1 mm 1 mps 756 mmHg 94%
02:00 +25°C° 0.1 mm 1 mps 756 mmHg 95%
03:00 +25°C° 0 mm 1 mps 756 mmHg 95%
04:00 +25°C° 0 mm 1 mps 756 mmHg 96%
05:00 +25°C° 0 mm 1 mps 756 mmHg 97%
06:00 +25°C° 0 mm 1 mps 757 mmHg 94%
07:00 +26°C° 0 mm 2 mps 758 mmHg 91%
08:00 +27°C° 0 mm 2 mps 758 mmHg 88%
09:00 +28°C° 0 mm 2 mps 758 mmHg 81%
10:00 +29°C° 0 mm 2 mps 758 mmHg 74%
11:00 +30°C° 0 mm 2 mps 758 mmHg 67%
12:00 +31°C° 0 mm 2 mps 757 mmHg 64%
13:00 +32°C° 0 mm 2 mps 756 mmHg 60%
14:00 +34°C° 0 mm 2 mps 755 mmHg 56%
15:00 +32°C° 0.2 mm 2 mps 755 mmHg 63%
16:00 +31°C° 0.2 mm 2 mps 755 mmHg 69%
17:00 +30°C° 0.2 mm 1 mps 755 mmHg 76%
18:00 +29°C° 0 mm 1 mps 755 mmHg 80%
19:00 +27°C° 0 mm 1 mps 756 mmHg 84%
20:00 +26°C° 0 mm 1 mps 757 mmHg 88%
21:00 +26°C° 0 mm 1 mps 757 mmHg 89%
22:00 +26°C° 0 mm 1 mps 757 mmHg 91%
23:00 +25°C° 0 mm 1 mps 758 mmHg 92%

27 January, Wednesday

Time Temperature Precipitation Wind Pressure Humidity
00:00 +25°C° 0 mm 1 mps 757 mmHg 93%
01:00 +25°C° 0 mm 1 mps 757 mmHg 93%
02:00 +25°C° 0 mm 1 mps 756 mmHg 94%
03:00 +25°C° 0 mm 1 mps 756 mmHg 94%
04:00 +24°C° 0 mm 1 mps 756 mmHg 94%
05:00 +24°C° 0 mm 1 mps 757 mmHg 94%
06:00 +26°C° 0 mm 1 mps 757 mmHg 88%
07:00 +27°C° 0 mm 1 mps 758 mmHg 82%
08:00 +28°C° 0 mm 1 mps 758 mmHg 75%
09:00 +30°C° 0.3 mm 1 mps 758 mmHg 69%
10:00 +31°C° 0.3 mm 2 mps 758 mmHg 63%
11:00 +34°C° 0.3 mm 2 mps 758 mmHg 57%
12:00 +34°C° 0.7 mm 2 mps 757 mmHg 60%
13:00 +34°C° 0.7 mm 2 mps 756 mmHg 63%
14:00 +32°C° 0.7 mm 2 mps 755 mmHg 65%
15:00 +31°C° 0.6 mm 2 mps 755 mmHg 71%
16:00 +30°C° 0.6 mm 2 mps 755 mmHg 76%
17:00 +29°C° 0.6 mm 2 mps 755 mmHg 81%
18:00 +28°C° 0.3 mm 1 mps 756 mmHg 84%
19:00 +27°C° 0.3 mm 1 mps 756 mmHg 88%
20:00 +26°C° 0.3 mm 1 mps 757 mmHg 91%
21:00 +26°C° 0.1 mm 1 mps 757 mmHg 91%
22:00 +26°C° 0.1 mm 1 mps 757 mmHg 91%
23:00 +26°C° 0.1 mm 1 mps 758 mmHg 92%

28 January, Thursday

Time Temperature Precipitation Wind Pressure Humidity
00:00 +26°C° 0.3 mm 1 mps 757 mmHg 93%
01:00 +25°C° 0.3 mm 1 mps 757 mmHg 95%
02:00 +25°C° 0.3 mm 1 mps 756 mmHg 96%
03:00 +25°C° 0 mm 1 mps 756 mmHg 97%
04:00 +25°C° 0 mm 1 mps 756 mmHg 97%
05:00 +24°C° 0 mm 1 mps 757 mmHg 98%
06:00 +25°C° 0 mm 1 mps 757 mmHg 93%
07:00 +26°C° 0 mm 1 mps 757 mmHg 89%
08:00 +28°C° 0 mm 2 mps 758 mmHg 85%
09:00 +28°C° 0.4 mm 2 mps 758 mmHg 82%
10:00 +29°C° 0.4 mm 1 mps 757 mmHg 80%
11:00 +30°C° 0.4 mm 1 mps 757 mmHg 78%
12:00 +30°C° 1.1 mm 2 mps 757 mmHg 78%
13:00 +30°C° 1.1 mm 2 mps 756 mmHg 79%
14:00 +30°C° 1.1 mm 2 mps 755 mmHg 80%
Show more